| time (UTC) | temp F | wind direction | speed knots | gust knots | rain 1hr in | rain 24hr in | rain mn in | humidity % | barometer mb |
| 20260904232210 | 70 | 322 | 4.3 | 10.4 | 0.00 | 0.00 | 0.00 | 44 | 1014.0 |
| 20260904231711 | 70 | 337 | 6.1 | 10.4 | 0.00 | 0.00 | 0.00 | 44 | 1014.2 |
| 20260904231211 | 69 | 320 | 7.8 | 10.4 | 0.00 | 0.00 | 0.00 | 45 | 1014.2 |
| 20260904230710 | 68 | 325 | 6.1 | 10.4 | 0.00 | 0.00 | 0.00 | 47 | 1014.4 |
| 20260904230210 | 68 | 335 | 5.2 | 10.4 | 0.00 | 0.00 | 0.00 | 48 | 1014.5 |
| 20260904225211 | 66 | 321 | 6.1 | 10.4 | 0.00 | 0.00 | 0.00 | 51 | 1014.7 |
| 20260904224210 | 65 | 325 | 8.7 | 12.2 | 0.00 | 0.00 | 0.00 | 52 | 1015.0 |
| 20260904223710 | 65 | 316 | 8.7 | 11.3 | 0.00 | 0.00 | 0.00 | 53 | 1015.1 |
| 20260904223210 | 64 | 311 | 9.6 | 11.3 | 0.00 | 0.00 | 0.00 | 53 | 1015.2 |
| 20260904222711 | 64 | 326 | 8.7 | 11.3 | 0.00 | 0.00 | 0.00 | 54 | 1015.2 |
| 20260904221711 | 64 | 328 | 7.8 | 11.3 | 0.00 | 0.00 | 0.00 | 55 | 1015.2 |
| 20260904221210 | 63 | 313 | 7.8 | 10.4 | 0.00 | 0.00 | 0.00 | 55 | 1015.0 |
| 20260904220710 | 63 | 323 | 8.7 | 12.2 | 0.00 | 0.00 | 0.00 | 56 | 1015.1 |
| 20260904220210 | 63 | 320 | 8.7 | 12.2 | 0.00 | 0.00 | 0.00 | 57 | 1015.1 |
| 20260904215710 | 62 | 329 | 10.4 | 13.0 | 0.00 | 0.00 | 0.00 | 57 | 1015.0 |
| 20260904215211 | 62 | 315 | 8.7 | 12.2 | 0.00 | 0.00 | 0.00 | 57 | 1015.3 |
| 20260904214710 | 62 | 315 | 9.6 | 12.2 | 0.00 | 0.00 | 0.00 | 57 | 1015.4 |
| 20260904213210 | 62 | 324 | 11.3 | 13.9 | 0.00 | 0.00 | 0.00 | 58 | 1015.4 |
| 20260904212711 | 62 | 322 | 12.2 | 13.9 | 0.00 | 0.00 | 0.00 | 58 | 1015.4 |
| 20260904212210 | 61 | 321 | 11.3 | 13.9 | 0.00 | 0.00 | 0.00 | 59 | 1015.3 |
| 20260904211710 | 61 | 320 | 11.3 | 13.0 | 0.00 | 0.00 | 0.00 | 59 | 1015.4 |
| 20260904211210 | 61 | 320 | 8.7 | 12.2 | 0.00 | 0.00 | 0.00 | 60 | 1015.2 |
| 20260904210711 | 60 | 321 | 10.4 | 12.2 | 0.00 | 0.00 | 0.00 | 60 | 1015.4 |
| 20260904210210 | 60 | 317 | 12.2 | 13.9 | 0.00 | 0.00 | 0.00 | 60 | 1015.4 |
| 20260904205710 | 60 | 310 | 11.3 | 13.9 | 0.00 | 0.00 | 0.00 | 61 | 1015.6 |
| 20260904205211 | 60 | 312 | 12.2 | 14.8 | 0.00 | 0.00 | 0.00 | 61 | 1015.4 |
| 20260904204710 | 60 | 315 | 13.9 | 15.6 | 0.00 | 0.00 | 0.00 | 61 | 1015.5 |
| 20260904204210 | 60 | 314 | 14.8 | 17.4 | 0.00 | 0.00 | 0.00 | 60 | 1015.4 |
| 20260904203710 | 60 | 309 | 14.8 | 17.4 | 0.00 | 0.00 | 0.00 | 60 | 1015.4 |
| 20260904203210 | 60 | 310 | 13.9 | 17.4 | 0.00 | 0.00 | 0.00 | 60 | 1015.7 |
| 20260904202210 | 60 | 307 | 14.8 | 17.4 | 0.00 | 0.00 | 0.00 | 59 | 1015.5 |
| 20260904201710 | 61 | 317 | 13.9 | 17.4 | 0.00 | 0.00 | 0.00 | 60 | 1015.5 |
| 20260904201210 | 61 | 307 | 13.0 | 14.8 | 0.00 | 0.00 | 0.00 | 59 | 1015.4 |
| 20260904200210 | 60 | 303 | 12.2 | 13.9 | 0.00 | 0.00 | 0.00 | 60 | 1015.5 |
| 20260904195710 | 60 | 304 | 12.2 | 14.8 | 0.00 | 0.00 | 0.00 | 61 | 1015.4 |
| 20260904195210 | 60 | 299 | 11.3 | 13.0 | 0.00 | 0.00 | 0.00 | 62 | 1015.6 |
| 20260904194210 | 60 | 301 | 8.7 | 11.3 | 0.00 | 0.00 | 0.00 | 62 | 1015.4 |
| 20260904193710 | 60 | 304 | 8.7 | 10.4 | 0.00 | 0.00 | 0.00 | 62 | 1015.4 |
| 20260904193209 | 60 | 294 | 7.8 | 10.4 | 0.00 | 0.00 | 0.00 | 62 | 1015.6 |
| 20260904191710 | 60 | 294 | 7.8 | 10.4 | 0.00 | 0.00 | 0.00 | 63 | 1015.6 |
| 20260904190710 | 60 | 305 | 6.1 | 8.7 | 0.00 | 0.00 | 0.00 | 64 | 1015.5 |
| 20260904190210 | 60 | 300 | 6.1 | 7.8 | 0.00 | 0.00 | 0.00 | 64 | 1015.6 |
| 20260904185710 | 60 | 306 | 6.1 | 7.8 | 0.00 | 0.00 | 0.00 | 64 | 1015.7 |
| 20260904185210 | 60 | 303 | 6.1 | 7.0 | 0.00 | 0.00 | 0.00 | 64 | 1015.7 |
| 20260904184710 | 60 | 309 | 5.2 | 7.0 | 0.00 | 0.00 | 0.00 | 64 | 1015.8 |
| 20260904184210 | 60 | 324 | 6.1 | 7.0 | 0.00 | 0.00 | 0.00 | 64 | 1015.7 |
| 20260904183210 | 60 | 326 | 7.0 | 7.8 | 0.00 | 0.00 | 0.00 | 63 | 1015.9 |
| 20260904182710 | 61 | 315 | 6.1 | 7.8 | 0.00 | 0.00 | 0.00 | 63 | 1015.9 |
| 20260904182210 | 61 | 333 | 5.2 | 8.7 | 0.00 | 0.00 | 0.00 | 62 | 1015.8 |
| 20260904181210 | 61 | 317 | 7.0 | 8.7 | 0.00 | 0.00 | 0.00 | 61 | 1015.7 |
| 20260904180710 | 61 | 314 | 7.0 | 7.8 | 0.00 | 0.00 | 0.00 | 61 | 1015.9 |
| 20260904180210 | 61 | 314 | 6.1 | 7.8 | 0.00 | 0.00 | 0.00 | 62 | 1015.9 |
| 20260904175710 | 61 | 302 | 5.2 | 6.1 | 0.00 | 0.00 | 0.00 | 62 | 1015.6 |
| 20260904175210 | 61 | 314 | 5.2 | 6.1 | 0.00 | 0.00 | 0.00 | 63 | 1015.6 |
| 20260904174710 | 61 | 310 | 4.3 | 6.1 | 0.00 | 0.00 | 0.00 | 64 | 1015.6 |
| 20260904174210 | 60 | 320 | 4.3 | 6.1 | 0.00 | 0.00 | 0.00 | 65 | 1015.7 |
| 20260904173710 | 60 | 336 | 2.6 | 6.1 | 0.00 | 0.00 | 0.00 | 67 | 1015.7 |
| 20260904173210 | 60 | 54 | 2.6 | 4.3 | 0.00 | 0.00 | 0.00 | 68 | 1015.6 |
| 20260904172210 | 60 | 308 | 1.7 | 5.2 | 0.00 | 0.00 | 0.00 | 64 | 1015.7 |
| 20260904171210 | 60 | 301 | 4.3 | 6.1 | 0.00 | 0.00 | 0.00 | 65 | 1015.7 |
| 20260904170710 | 60 | 313 | 5.2 | 7.0 | 0.00 | 0.00 | 0.00 | 65 | 1015.8 |
| 20260904170210 | 60 | 312 | 6.1 | 10.4 | 0.00 | 0.00 | 0.00 | 65 | 1015.9 |
| 20260904165710 | 60 | 314 | 5.2 | 10.4 | 0.00 | 0.00 | 0.00 | 66 | 1016.1 |
| 20260904165210 | 60 | 332 | 5.2 | 8.7 | 0.00 | 0.00 | 0.00 | 66 | 1016.1 |
| 20260904164210 | 60 | 329 | 6.1 | 8.7 | 0.00 | 0.00 | 0.00 | 65 | 1016.2 |
| 20260904163710 | 60 | 328 | 5.2 | 7.0 | 0.00 | 0.00 | 0.00 | 65 | 1016.3 |
| 20260904163210 | 60 | 321 | 5.2 | 7.8 | 0.00 | 0.00 | 0.00 | 66 | 1016.3 |
| 20260904162710 | 60 | 319 | 2.6 | 5.2 | 0.00 | 0.00 | 0.00 | 67 | 1016.4 |
| 20260904161709 | 60 | 307 | 0.0 | 2.6 | 0.00 | 0.00 | 0.00 | 67 | 1016.5 |
| 20260904161209 | 60 | 283 | 3.5 | 7.0 | 0.00 | 0.00 | 0.00 | 67 | 1016.8 |
| 20260904160709 | 60 | 296 | 5.2 | 10.4 | 0.00 | 0.00 | 0.00 | 67 | 1016.8 |
| 20260904160210 | 60 | 304 | 7.8 | 10.4 | 0.00 | 0.00 | 0.00 | 67 | 1017.0 |
| 20260904155710 | 60 | 321 | 8.7 | 11.3 | 0.00 | 0.00 | 0.00 | 67 | 1016.8 |
| 20260904155209 | 61 | 310 | 8.7 | 11.3 | 0.00 | 0.00 | 0.00 | 67 | 1017.1 |
| 20260904154709 | 61 | 304 | 8.7 | 10.4 | 0.00 | 0.00 | 0.00 | 68 | 1017.2 |
| 20260904154210 | 61 | 302 | 9.6 | 10.4 | 0.00 | 0.00 | 0.00 | 68 | 1017.2 |
| 20260904153710 | 60 | 306 | 8.7 | 10.4 | 0.00 | 0.00 | 0.00 | 69 | 1017.1 |
| 20260904153210 | 60 | 306 | 8.7 | 10.4 | 0.00 | 0.00 | 0.00 | 69 | 1017.3 |
| 20260904152710 | 60 | 309 | 8.7 | 11.3 | 0.00 | 0.00 | 0.00 | 70 | 1017.4 |
| 20260904152210 | 60 | 309 | 8.7 | 11.3 | 0.00 | 0.00 | 0.00 | 71 | 1017.5 |
| 20260904151710 | 60 | 294 | 8.7 | 11.3 | 0.00 | 0.00 | 0.00 | 72 | 1017.6 |
| 20260904150710 | 60 | 312 | 8.7 | 10.4 | 0.00 | 0.00 | 0.00 | 72 | 1017.5 |
| 20260904145210 | 60 | 310 | 10.4 | 12.2 | 0.00 | 0.00 | 0.00 | 72 | 1017.9 |
| 20260904144709 | 61 | 304 | 8.7 | 11.3 | 0.00 | 0.00 | 0.00 | 72 | 1017.9 |
| 20260904144209 | 61 | 306 | 9.6 | 11.3 | 0.00 | 0.00 | 0.00 | 72 | 1017.8 |
| 20260904143210 | 61 | 304 | 7.0 | 8.7 | 0.00 | 0.00 | 0.00 | 72 | 1017.7 |
| 20260904142709 | 61 | 305 | 7.0 | 10.4 | 0.00 | 0.00 | 0.00 | 72 | 1018.0 |
| 20260904142209 | 61 | 312 | 7.8 | 8.7 | 0.00 | 0.00 | 0.00 | 72 | 1018.0 |
| 20260904141709 | 61 | 310 | 7.8 | 8.7 | 0.00 | 0.00 | 0.00 | 72 | 1017.9 |
| 20260904141209 | 61 | 316 | 7.8 | 8.7 | 0.00 | 0.00 | 0.00 | 72 | 1018.2 |
| 20260904140709 | 61 | 325 | 7.0 | 7.8 | 0.00 | 0.00 | 0.00 | 71 | 1017.9 |
| 20260904140210 | 62 | 318 | 6.1 | 7.0 | 0.00 | 0.00 | 0.00 | 71 | 1018.0 |
| 20260904135710 | 62 | 322 | 6.1 | 7.0 | 0.00 | 0.00 | 0.00 | 71 | 1017.8 |
| 20260904134709 | 62 | 329 | 6.1 | 7.0 | 0.00 | 0.00 | 0.00 | 71 | 1018.1 |
| 20260904134209 | 62 | 337 | 6.1 | 7.0 | 0.00 | 0.00 | 0.00 | 71 | 1018.0 |
| 20260904133709 | 63 | 337 | 6.1 | 6.1 | 0.00 | 0.00 | 0.00 | 71 | 1018.2 |
| 20260904133209 | 63 | 337 | 6.1 | 6.1 | 0.00 | 0.00 | 0.00 | 70 | 1018.2 |
| 20260904132710 | 63 | 337 | 5.2 | 6.1 | 0.00 | 0.00 | 0.00 | 70 | 1018.3 |
| 20260904131709 | 63 | 355 | 5.2 | 7.0 | 0.00 | 0.00 | 0.00 | 70 | 1018.3 |
| 20260904131209 | 63 | 348 | 4.3 | 6.1 | 0.00 | 0.00 | 0.00 | 70 | 1018.7 |
| 20260904130709 | 63 | 359 | 5.2 | 6.1 | 0.00 | 0.00 | 0.00 | 70 | 1018.6 |
| 20260904125709 | 63 | 348 | 4.3 | 5.2 | 0.00 | 0.00 | 0.00 | 71 | 1018.6 |
| 20260904125209 | 62 | 0 | 4.3 | 6.1 | 0.00 | 0.00 | 0.00 | 71 | 1018.7 |
| 20260904124709 | 62 | 354 | 3.5 | 5.2 | 0.00 | 0.00 | 0.00 | 71 | 1018.8 |
| 20260904124210 | 62 | 16 | 2.6 | 4.3 | 0.00 | 0.00 | 0.00 | 71 | 1018.7 |
| 20260904123709 | 62 | 17 | 2.6 | 4.3 | 0.00 | 0.00 | 0.00 | 71 | 1018.8 |
| 20260904123209 | 63 | 359 | 0.0 | 0.0 | 0.00 | 0.00 | 0.00 | 71 | 1019.2 |
| 20260904121709 | 63 | 359 | 1.7 | 2.6 | 0.00 | 0.00 | 0.00 | 70 | 1019.2 |
| 20260904121210 | 63 | 359 | 1.7 | 2.6 | 0.00 | 0.00 | 0.00 | 70 | 1019.4 |
| 20260904120709 | 63 | 359 | 1.7 | 4.3 | 0.00 | 0.00 | 0.00 | 70 | 1019.4 |
| 20260904120209 | 63 | 8 | 2.6 | 4.3 | 0.00 | 0.00 | 0.00 | 70 | 1019.2 |
| 20260904115209 | 63 | 25 | 4.3 | 5.2 | 0.00 | 0.00 | 0.00 | 69 | 1019.2 |
| 20260904114709 | 63 | 35 | 2.6 | 4.3 | 0.00 | 0.00 | 0.00 | 69 | 1019.4 |
| 20260904114209 | 63 | 345 | 1.7 | 2.6 | 0.00 | 0.00 | 0.00 | 68 | 1019.2 |
| 20260904113709 | 63 | 345 | 1.7 | 2.6 | 0.00 | 0.00 | 0.00 | 68 | 1019.5 |
| 20260904113209 | 63 | 345 | 0.9 | 2.6 | 0.00 | 0.00 | 0.00 | 68 | 1019.4 |
| 20260904112709 | 63 | 327 | 2.6 | 7.0 | 0.00 | 0.00 | 0.00 | 68 | 1019.4 |
| 20260904112208 | 63 | 358 | 5.2 | 7.8 | 0.00 | 0.00 | 0.00 | 67 | 1019.5 |
| 20260904111709 | 63 | 1 | 5.2 | 7.0 | 0.00 | 0.00 | 0.00 | 66 | 1019.2 |
| 20260904111209 | 63 | 1 | 5.2 | 7.8 | 0.00 | 0.00 | 0.00 | 66 | 1019.3 |
| 20260904110709 | 63 | 5 | 4.3 | 5.2 | 0.00 | 0.00 | 0.00 | 66 | 1019.2 |
| 20260904110209 | 63 | 4 | 2.6 | 4.3 | 0.00 | 0.00 | 0.00 | 66 | 1019.3 |
| 20260904105709 | 63 | 20 | 2.6 | 4.3 | 0.00 | 0.00 | 0.00 | 66 | 1019.1 |
| 20260904105210 | 63 | 13 | 2.6 | 4.3 | 0.00 | 0.00 | 0.00 | 66 | 1019.2 |
| 20260904104709 | 63 | 31 | 2.6 | 5.2 | 0.00 | 0.00 | 0.00 | 66 | 1019.1 |
| 20260904104209 | 64 | 27 | 2.6 | 2.6 | 0.00 | 0.00 | 0.00 | 66 | 1019.2 |
| 20260904103709 | 64 | 22 | 0.0 | 0.0 | 0.00 | 0.00 | 0.00 | 65 | 1019.1 |
| 20260904103209 | 64 | 145 | 0.0 | 0.0 | 0.00 | 0.00 | 0.00 | 65 | 1018.9 |
| 20260904102209 | 64 | 191 | 0.0 | 0.0 | 0.00 | 0.00 | 0.00 | 65 | 1019.0 |
| 20260904101709 | 64 | 191 | 0.0 | 0.9 | 0.00 | 0.00 | 0.00 | 65 | 1019.3 |
| 20260904101209 | 64 | 191 | 0.0 | 1.7 | 0.00 | 0.00 | 0.00 | 65 | 1018.8 |
| 20260904100709 | 64 | 185 | 0.0 | 2.6 | 0.00 | 0.00 | 0.00 | 65 | 1018.9 |
| 20260904100209 | 64 | 185 | 0.9 | 2.6 | 0.00 | 0.00 | 0.00 | 65 | 1019.0 |
| 20260904095709 | 64 | 190 | 0.9 | 2.6 | 0.00 | 0.00 | 0.00 | 65 | 1018.8 |
| 20260904095209 | 64 | 211 | 1.7 | 2.6 | 0.00 | 0.00 | 0.00 | 65 | 1018.7 |
| 20260904094709 | 64 | 173 | 3.5 | 7.8 | 0.00 | 0.00 | 0.00 | 65 | 1018.7 |
| 20260904094209 | 64 | 191 | 4.3 | 7.0 | 0.00 | 0.00 | 0.00 | 65 | 1018.8 |
| 20260904093709 | 64 | 257 | 0.9 | 2.6 | 0.00 | 0.00 | 0.00 | 65 | 1018.8 |
| 20260904093209 | 64 | 342 | 0.0 | 0.0 | 0.00 | 0.00 | 0.00 | 65 | 1018.7 |
| 20260904092708 | 64 | 342 | 0.0 | 0.0 | 0.00 | 0.00 | 0.00 | 65 | 1018.5 |
| 20260904091709 | 64 | 342 | 0.0 | 1.7 | 0.00 | 0.00 | 0.00 | 65 | 1018.3 |
| 20260904091209 | 64 | 342 | 1.7 | 2.6 | 0.00 | 0.00 | 0.00 | 65 | 1018.4 |
| 20260904090708 | 64 | 342 | 2.6 | 2.6 | 0.00 | 0.00 | 0.00 | 65 | 1018.1 |
| 20260904090208 | 64 | 353 | 1.7 | 5.2 | 0.00 | 0.00 | 0.00 | 64 | 1018.1 |
| 20260904085709 | 64 | 357 | 2.6 | 7.8 | 0.00 | 0.00 | 0.00 | 64 | 1017.9 |
| 20260904085209 | 64 | 358 | 4.3 | 7.8 | 0.00 | 0.00 | 0.00 | 64 | 1017.9 |
| 20260904084708 | 64 | 350 | 5.2 | 8.7 | 0.00 | 0.00 | 0.00 | 64 | 1017.8 |
| 20260904084208 | 64 | 2 | 4.3 | 7.8 | 0.00 | 0.00 | 0.00 | 64 | 1017.6 |
| 20260904083708 | 64 | 338 | 4.3 | 7.8 | 0.00 | 0.00 | 0.00 | 64 | 1017.6 |
| 20260904083209 | 64 | 346 | 5.2 | 8.7 | 0.00 | 0.00 | 0.00 | 63 | 1017.5 |
| 20260904082709 | 64 | 342 | 4.3 | 7.0 | 0.00 | 0.00 | 0.00 | 62 | 1017.6 |
| 20260904082209 | 64 | 5 | 4.3 | 8.7 | 0.00 | 0.00 | 0.00 | 61 | 1017.5 |
| 20260904081709 | 64 | 2 | 2.6 | 8.7 | 0.00 | 0.00 | 0.00 | 61 | 1017.7 |
| 20260904081209 | 64 | 351 | 4.3 | 8.7 | 0.00 | 0.00 | 0.00 | 61 | 1017.2 |
| 20260904080709 | 64 | 6 | 4.3 | 10.4 | 0.00 | 0.00 | 0.00 | 62 | 1017.1 |
| 20260904080209 | 64 | 1 | 5.2 | 8.7 | 0.00 | 0.00 | 0.00 | 63 | 1017.2 |
| 20260904075708 | 64 | 357 | 6.1 | 10.4 | 0.00 | 0.00 | 0.00 | 64 | 1017.3 |
| 20260904075209 | 64 | 13 | 4.3 | 7.8 | 0.00 | 0.00 | 0.00 | 65 | 1017.1 |
| 20260904074209 | 64 | 30 | 3.5 | 7.0 | 0.00 | 0.00 | 0.00 | 63 | 1017.1 |
| 20260904073709 | 64 | 48 | 3.5 | 6.1 | 0.00 | 0.00 | 0.00 | 63 | 1017.0 |
| 20260904073208 | 64 | 15 | 5.2 | 8.7 | 0.00 | 0.00 | 0.00 | 63 | 1017.0 |
| 20260904072708 | 64 | 9 | 5.2 | 7.8 | 0.00 | 0.00 | 0.00 | 63 | 1016.9 |
| 20260904072209 | 64 | 5 | 5.2 | 10.4 | 0.00 | 0.00 | 0.00 | 65 | 1016.9 |
| 20260904071708 | 64 | 28 | 5.2 | 7.8 | 0.00 | 0.00 | 0.00 | 66 | 1016.7 |
| 20260904071209 | 64 | 36 | 7.0 | 8.7 | 0.00 | 0.00 | 0.00 | 67 | 1016.7 |
| 20260904070709 | 64 | 35 | 7.8 | 10.4 | 0.00 | 0.00 | 0.00 | 66 | 1016.6 |
| 20260904065708 | 64 | 34 | 7.8 | 12.2 | 0.00 | 0.00 | 0.00 | 65 | 1016.7 |
| 20260904065209 | 64 | 39 | 11.3 | 13.9 | 0.00 | 0.00 | 0.00 | 64 | 1016.7 |
| 20260904064208 | 64 | 44 | 10.4 | 12.2 | 0.00 | 0.00 | 0.00 | 63 | 1016.9 |
| 20260904063708 | 64 | 48 | 9.6 | 12.2 | 0.00 | 0.00 | 0.00 | 64 | 1016.8 |
| 20260904063208 | 64 | 48 | 10.4 | 13.0 | 0.00 | 0.00 | 0.00 | 63 | 1016.7 |
| 20260904062208 | 64 | 49 | 13.0 | 14.8 | 0.00 | 0.00 | 0.00 | 62 | 1016.8 |
| 20260904061208 | 65 | 62 | 12.2 | 14.8 | 0.00 | 0.00 | 0.00 | 61 | 1016.6 |
| 20260904060708 | 65 | 64 | 12.2 | 14.8 | 0.00 | 0.00 | 0.00 | 59 | 1016.7 |
| 20260904060208 | 65 | 63 | 11.3 | 13.0 | 0.00 | 0.00 | 0.00 | 59 | 1016.7 |
| 20260904055708 | 65 | 66 | 11.3 | 14.8 | 0.00 | 0.00 | 0.00 | 58 | 1016.7 |
| 20260904055208 | 65 | 69 | 11.3 | 14.8 | 0.00 | 0.00 | 0.00 | 58 | 1016.6 |
| 20260904054709 | 65 | 65 | 12.2 | 15.6 | 0.00 | 0.00 | 0.00 | 58 | 1016.8 |
| 20260904054209 | 65 | 66 | 13.0 | 15.6 | 0.00 | 0.00 | 0.00 | 58 | 1016.7 |
| 20260904053708 | 64 | 58 | 13.0 | 14.8 | 0.00 | 0.00 | 0.00 | 59 | 1016.7 |
| 20260904053208 | 64 | 62 | 13.9 | 15.6 | 0.00 | 0.00 | 0.00 | 61 | 1016.9 |
| 20260904052709 | 64 | 61 | 13.9 | 17.4 | 0.00 | 0.00 | 0.00 | 62 | 1016.7 |
| 20260904052208 | 64 | 64 | 14.8 | 17.4 | 0.00 | 0.00 | 0.00 | 63 | 1016.7 |
| 20260904051708 | 64 | 63 | 14.8 | 17.4 | 0.00 | 0.00 | 0.00 | 63 | 1016.8 |
| 20260904051208 | 64 | 63 | 14.8 | 17.4 | 0.00 | 0.00 | 0.00 | 63 | 1016.9 |
| 20260904050708 | 64 | 58 | 14.8 | 17.4 | 0.00 | 0.00 | 0.00 | 64 | 1017.0 |
| 20260904050208 | 65 | 65 | 13.9 | 17.4 | 0.00 | 0.00 | 0.00 | 64 | 1017.0 |
| 20260904045709 | 65 | 71 | 11.3 | 15.6 | 0.00 | 0.00 | 0.00 | 63 | 1016.9 |
| 20260904045209 | 65 | 74 | 12.2 | 17.4 | 0.00 | 0.00 | 0.00 | 62 | 1017.0 |
| 20260904044708 | 66 | 70 | 12.2 | 17.4 | 0.00 | 0.00 | 0.00 | 60 | 1017.0 |
| 20260904044209 | 67 | 74 | 11.3 | 17.4 | 0.00 | 0.00 | 0.00 | 58 | 1017.2 |
| 20260904043709 | 68 | 82 | 9.6 | 13.0 | 0.00 | 0.00 | 0.00 | 58 | 1017.1 |
| 20260904042709 | 68 | 85 | 6.1 | 10.4 | 0.00 | 0.00 | 0.00 | 56 | 1017.4 |
| 20260904042208 | 68 | 91 | 7.0 | 10.4 | 0.00 | 0.00 | 0.00 | 56 | 1017.6 |
| 20260904041708 | 68 | 89 | 6.1 | 10.4 | 0.00 | 0.00 | 0.00 | 55 | 1017.7 |
| 20260904041208 | 68 | 89 | 7.0 | 10.4 | 0.00 | 0.00 | 0.00 | 55 | 1017.8 |
| 20260904040708 | 68 | 88 | 6.1 | 10.4 | 0.00 | 0.00 | 0.00 | 57 | 1017.5 |
| 20260904040208 | 68 | 85 | 6.1 | 10.4 | 0.00 | 0.00 | 0.00 | 58 | 1017.6 |
| 20260904035708 | 67 | 90 | 7.0 | 10.4 | 0.00 | 0.00 | 0.00 | 59 | 1017.5 |
| 20260904035208 | 67 | 81 | 6.1 | 10.4 | 0.00 | 0.00 | 0.00 | 59 | 1017.6 |
| 20260904034708 | 67 | 114 | 7.8 | 10.4 | 0.00 | 0.00 | 0.00 | 58 | 1017.9 |
| 20260904034208 | 66 | 88 | 5.2 | 8.7 | 0.00 | 0.00 | 0.00 | 59 | 1018.1 |
| 20260904033708 | 66 | 73 | 8.7 | 13.0 | 0.00 | 0.00 | 0.00 | 58 | 1018.0 |
| 20260904032708 | 68 | 74 | 10.4 | 12.2 | 0.00 | 0.00 | 0.00 | 54 | 1018.2 |
| 20260904032208 | 68 | 49 | 2.6 | 8.7 | 0.00 | 0.00 | 0.00 | 48 | 1018.3 |
| 20260904031708 | 69 | 71 | 8.7 | 12.2 | 0.00 | 0.00 | 0.00 | 51 | 1018.2 |
| 20260904031208 | 70 | 81 | 6.1 | 10.4 | 0.00 | 0.00 | 0.00 | 50 | 1018.1 |
| 20260904030708 | 70 | 87 | 3.5 | 5.2 | 0.00 | 0.00 | 0.00 | 50 | 1018.2 |
| 20260904025708 | 68 | 89 | 4.3 | 7.8 | 0.00 | 0.00 | 0.00 | 54 | 1018.7 |
| 20260904025208 | 68 | 106 | 6.1 | 8.7 | 0.00 | 0.00 | 0.00 | 53 | 1018.5 |
| 20260904024709 | 69 | 111 | 7.0 | 10.4 | 0.00 | 0.00 | 0.00 | 52 | 1018.6 |
| 20260904024208 | 69 | 115 | 7.8 | 8.7 | 0.00 | 0.00 | 0.00 | 51 | 1018.8 |
| 20260904023708 | 69 | 121 | 5.2 | 7.8 | 0.00 | 0.00 | 0.00 | 49 | 1018.9 |
| 20260904023208 | 69 | 85 | 3.5 | 6.1 | 0.00 | 0.00 | 0.00 | 52 | 1019.0 |
| 20260904022708 | 69 | 21 | 2.6 | 6.1 | 0.00 | 0.00 | 0.00 | 53 | 1018.9 |
| 20260904022209 | 69 | 95 | 6.1 | 8.7 | 0.00 | 0.00 | 0.00 | 50 | 1019.1 |
| 20260904021208 | 70 | 100 | 4.3 | 6.1 | 0.00 | 0.00 | 0.00 | 50 | 1019.4 |
| 20260904020708 | 70 | 92 | 3.5 | 6.1 | 0.00 | 0.00 | 0.00 | 50 | 1019.4 |
| 20260904020208 | 70 | 80 | 5.2 | 7.0 | 0.00 | 0.00 | 0.00 | 50 | 1019.4 |
| 20260904015708 | 70 | 94 | 4.3 | 7.0 | 0.00 | 0.00 | 0.00 | 49 | 1019.5 |
| 20260904015208 | 70 | 72 | 4.3 | 7.0 | 0.00 | 0.00 | 0.00 | 48 | 1019.8 |
| 20260904014709 | 71 | 101 | 5.2 | 7.0 | 0.00 | 0.00 | 0.00 | 45 | 1019.9 |
| 20260904014208 | 71 | 125 | 6.1 | 7.0 | 0.00 | 0.00 | 0.00 | 44 | 1020.1 |
| 20260904013708 | 71 | 104 | 2.6 | 5.2 | 0.00 | 0.00 | 0.00 | 42 | 1020.0 |
| 20260904013208 | 71 | 95 | 3.5 | 6.1 | 0.00 | 0.00 | 0.00 | 41 | 1020.2 |
| 20260904012208 | 71 | 117 | 4.3 | 6.1 | 0.00 | 0.00 | 0.00 | 44 | 1020.6 |
| 20260904011208 | 72 | 106 | 4.3 | 6.1 | 0.00 | 0.00 | 0.00 | 46 | 1020.5 |
| 20260904010708 | 73 | 105 | 2.6 | 4.3 | 0.00 | 0.00 | 0.00 | 43 | 1020.6 |
| 20260904010208 | 73 | 92 | 0.9 | 2.6 | 0.00 | 0.00 | 0.00 | 41 | 1020.7 |
| 20260904005708 | 73 | 113 | 3.5 | 7.0 | 0.00 | 0.00 | 0.00 | 41 | 1020.9 |
| 20260904005208 | 74 | 108 | 2.6 | 4.3 | 0.00 | 0.00 | 0.00 | 42 | 1020.9 |
| 20260904004708 | 73 | 98 | 1.7 | 2.6 | 0.00 | 0.00 | 0.00 | 38 | 1020.7 |
| 20260904004207 | 73 | 295 | 1.7 | 2.6 | 0.00 | 0.00 | 0.00 | 36 | 1020.7 |
| 20260904003707 | 72 | 246 | 1.7 | 2.6 | 0.00 | 0.00 | 0.00 | 37 | 1020.8 |
| 20260904003207 | 71 | 218 | 1.7 | 10.4 | 0.00 | 0.00 | 0.00 | 38 | 1020.8 |
| 20260904002208 | 70 | 273 | 2.6 | 6.1 | 0.00 | 0.00 | 0.00 | 38 | 1020.9 |
| 20260904001708 | 71 | 277 | 5.2 | 8.7 | 0.00 | 0.00 | 0.00 | 34 | 1020.8 |
| 20260904000708 | 71 | 255 | 1.7 | 4.3 | 0.00 | 0.00 | 0.00 | 37 | 1021.0 |
| 20260904000207 | 71 | 242 | 3.5 | 6.1 | 0.00 | 0.00 | 0.00 | 39 | 1021.1 |
| 20260903235208 | 69 | 245 | 6.1 | 8.7 | 0.00 | 0.00 | 0.00 | 40 | 1021.1 |
| 20260903234208 | 68 | 275 | 4.3 | 7.0 | 0.00 | 0.00 | 0.00 | 44 | 1021.2 |
| 20260903233708 | 67 | 265 | 6.1 | 10.4 | 0.00 | 0.00 | 0.00 | 45 | 1021.3 |
| 20260903233207 | 67 | 260 | 8.7 | 10.4 | 0.00 | 0.00 | 0.00 | 45 | 1021.5 |
| 20260903232708 | 67 | 276 | 7.0 | 11.3 | 0.00 | 0.00 | 0.00 | 45 | 1021.6 |